Regional Weather Roundup
Issued by NWS

Home | Current Version | Previous Version | Text Only | Print | Product List | Glossary Off
Versions: 1 2 3 4 5 6 7 8 9 10 11 12 13 14 15 16 17 18 19 20 21 22 23 24 25 26 27 28 29 30 31 32 33 34 35 36 37 38 39 40 41 42 43 44 45 46 47 48 49 50

000
ASUS43 KMPX 260110
RWRMN
WEATHER ROUNDUP FOR MINNESOTA
NATIONAL WEATHER SERVICE TWIN CITIES/CHANHASSEN MN
700 PM CST SUN JAN 25 2015


NOTE: "FAIR" INDICATES FEW OR NO CLOUDS BELOW 12,000 FEET WITH NO
SIGNIFICANT WEATHER AND/OR OBSTRUCTIONS TO VISIBILITY. N/A MEANS
CURRENT SKY AND/OR WEATHER CONDITIONS ARE NOT AVAILABLE.

MNZ060>063-068>070-260200-
   Twin Cities Metro

CITY           SKY/WX    TMP DP  RH WIND       PRES   REMARKS
TWIN CITIES    PTCLDY    22  14  71 SE7       30.06R WCI  13
ST PAUL        CLEAR     22  14  71 SE6       30.08R WCI  14
CRYSTAL        CLEAR     23  14  68 CALM      30.04S
BLAINE         CLEAR     21  16  79 CALM      30.04S
LAKEVILLE      CLEAR     18  16  93 CALM      30.05F
EDEN PRAIRIE   CLEAR     23  11  60 CALM      30.04S
SOUTH ST PAUL  CLEAR     22  14  72 CALM      30.07S
LAKE ELMO      FAIR      19  12  73 CALM      30.06F
$$
MNZ001>005-007-008-013>017-022>024-027-028-260200-
   Northwest Minnesota

CITY           SKY/WX    TMP DP  RH WIND       PRES   REMARKS
BEMIDJI        CLOUDY    25  18  74 S6        29.93F WCI  18
HALLOCK        CLOUDY    21  16  79 S16       29.87F WCI   7
ROSEAU         MOCLDY    19  12  73 S9        29.88F WCI   9
WARROAD        CLOUDY    19  12  73 S8        29.89F WCI   9
THIEF RVR FALL CLOUDY    21  16  79 S9        29.91F WCI  11
CROOKSTON      CLOUDY    25  19  80 S14       29.94F WCI  13
FOSSTON        CLOUDY    21  16  79 SW9       29.93F WCI  11
DETROIT LAKES  CLOUDY    25  21  86 SW3       29.97F
MOORHEAD       CLOUDY    25  21  86 S8        29.98F WCI  16
PARK RAPIDS    CLOUDY    26  18  71 S9        29.94F WCI  17
MAHNOMEN       FAIR      23  18  80 S7        29.94F WCI  15
$$
MNZ006-009>011-018-025>026-260200-
   North Central Minnesota

CITY           SKY/WX    TMP DP  RH WIND       PRES   REMARKS
BAUDETTE       CLOUDY    20  13  74 S7        29.88F WCI  11
FLAG ISLAND    MOCLDY    16  10  79 S9        29.87F WCI   4
INTL FALLS     CLOUDY    17   9  70 SE5       29.92F WCI  10
WASKISH        CLOUDY    19  16  86 CALM      29.92F
BIG FORK       CLOUDY    23  14  68 S8        29.94F WCI  14
LONGVILLE      CLOUDY    23  16  74 SE7       29.95F WCI  15
GRAND RAPIDS   CLOUDY    21  12  68 S9        29.96F WCI  11
CRANE LAKE     CLOUDY    19  10  68 S5        29.97F WCI  13
ORR            CLOUDY    21  10  63 S7        29.93S WCI  13
COOK           CLOUDY    19  12  73 S8        29.96F WCI   9
WALKER         FAIR      25  16  67 S6        29.95F WCI  18
$$
MNZ012-019>021-037-260200-
   Northeast Minnesota

CITY           SKY/WX    TMP DP  RH WIND       PRES   REMARKS
DULUTH         MOCLDY    19  14  81 SE5       29.99F WCI  12
ELY            MOCLDY    14   9  79 S8        29.96F WCI   3
HIBBING        CLOUDY    21  12  68 VRB6      29.97F WCI  13
EVELETH        CLOUDY    19  14  79 S7        29.99F WCI  10
DULUTH HARBOR  MOCLDY    23  16  74 CALM      30.07F
TWO HARBORS    FLURRIES  21  16  79 CALM      30.01F
SILVER BAY     LGT SNOW  18  14  86 CALM      30.01F
GRAND MARAIS     N/A     17  10  74 CALM      30.08F
G MARAIS ARPRT LGT SNOW   9   3  78 CALM      29.97F
$$
MNZ029>031-032-039>041-046>048-054>057-064-260200-
   West Central Minnesota

CITY           SKY/WX    TMP DP  RH WIND       PRES   REMARKS
FERGUS FALLS   CLOUDY    21  19  93 SE3       30.02F
WHEATON        CLOUDY    25  19  80 SE3       30.03F
MORRIS         MOCLDY    25  21  86 SW3       30.01S
ALEXANDRIA     CLOUDY    25  21  85 W5        30.01R WCI  19
ELBOW LAKE     FAIR      22  21  94 CALM      30.00F
WADENA         CLOUDY    25  21  86 SW5       29.99R WCI  19
GLENWOOD       CLOUDY    27  23  86 CALM      30.02R
APPLETON       MOCLDY    27  25  93 CALM      30.03S
BENSON         CLOUDY    27  23  86 W3        30.04R
ORTONVILLE     CLOUDY    27  21  80 SE3       30.01S
MADISON        MOCLDY    30  28  93 CALM      30.03R
WILLMAR        CLOUDY    28  25  86 SE3       30.04R
$$
MNZ033>034-036-042>043-049>051-058-059-260200-
   Central Minnesota

CITY           SKY/WX    TMP DP  RH WIND       PRES   REMARKS
ST CLOUD       MOCLDY    23  17  78 CALM      30.04R
SAUK CENTRE    CLOUDY    26  21  82 CALM      30.02R
PAYNESVILLE    CLOUDY    23  19  85 CALM      30.03R
AITKIN         CLOUDY    21  16  79 CALM      29.98F
PINE RIVER     CLOUDY    23  18  80 S5        30.00F WCI  17
BRAINERD       CLOUDY    21  14  74 S3        30.00S
STAPLES        CLOUDY    21  18  86 S5        29.99S WCI  15
LONG PRAIRIE   FAIR      25  21  86 S5        30.00F WCI  19
LITTLE FALLS   CLOUDY    23  16  74 CALM      30.02S
LITCHFIELD     MOCLDY    25  21  86 CALM      30.04R
BUFFALO        PTCLDY    24  16  74 CALM      30.05S
MAPLE LAKE     PTCLDY    22  19  88 CALM      30.05R
$$
MNZ037-044-045-052-053-260200-
   East Central Minnesota

CITY           SKY/WX    TMP DP  RH WIND       PRES   REMARKS
PRINCETON      MOCLDY    21  16  79 CALM      30.04R
MORA           MOCLDY    23  16  74 CALM      30.05S
CAMBRIDGE      MOCLDY    21  12  68 CALM      30.03S
RUSH CITY      FAIR      21  15  78 CALM      30.05S
MOOSE LAKE     MOCLDY    21  14  73 E3        30.01S
HINCKLEY       FAIR      25  16  68 CALM      30.04S
CLOQUET        MOCLDY    18  12  79 CALM      30.01F
MCGREGOR       CLOUDY    21  16  79 E5        30.01S WCI  15
$$
MNZ071>073-080-081-089-090-097-098-260200-
   Southwest Minnesota

CITY           SKY/WX    TMP DP  RH WIND       PRES   REMARKS
MONTEVIDEO     MOCLDY    27  27 100 CALM      30.05R
GRANITE FALLS  CLOUDY    28  26  91 CALM      30.05R
CANBY          MOCLDY    26  25  95 CALM      30.03R
MARSHALL       MOCLDY    27  23  86 CALM      30.04R
REDWOOD FALLS  CLOUDY    30  24  78 SE5       30.03S WCI  25
OLIVIA         CLOUDY    28  27  93 SE5       30.02S WCI  23
PIPESTONE      CLOUDY    32  30  93 W5        29.99R WCI  27
WINDOM         CLOUDY    28  27  93 CALM      30.02S
WORTHINGTON    CLOUDY    28  27  93 CALM      30.02S
JACKSON        CLOUDY    28  27  93 CALM      30.03R
TRACY          CLOUDY    29  28  94 CALM      30.02S
SLAYTON        CLOUDY    28  27  96 CALM      30.01S
$$
MNZ065>067-074>077-082>085-091>093-260200-
   South Central Minnesota

CITY           SKY/WX    TMP DP  RH WIND       PRES   REMARKS
MANKATO        CLEAR     25  16  68 E3        30.04F
NEW ULM        CLOUDY    27  19  74 E3        30.04S
ST JAMES       CLOUDY    28  25  86 CALM      30.05
FAIRMONT       CLOUDY    28  21  74 N3        30.04R
GLENCOE        PTCLDY    24  21  91 CALM      30.04S
FARIBAULT      CLEAR     19  16  86 CALM      30.06S
OWATONNA       CLOUDY    23  18  80 CALM      30.05R
WASECA         MOCLDY    23  19  86 E5        30.06S WCI  17
ALBERT LEA     CLOUDY    25  21  86 N3        30.04R
$$
MNZ078>079-086>088-094>096-260200-
   Southeast Minnesota

CITY           SKY/WX    TMP DP  RH WIND       PRES   REMARKS
ROCHESTER      CLOUDY    24  17  74 NW7       30.04R WCI  16
RED WING       CLEAR     18  10  73 CALM      30.07R
STANTON        CLEAR     23  18  81 CALM      30.05R
DODGE CENTER   CLOUDY    23  19  86 NW3       30.04R
WINONA         CLEAR     23  16  74 CALM      30.09R
AUSTIN         CLOUDY    25  19  80 CALM      30.05R
PRESTON        CLOUDY    24  19  80 CALM      30.04R
$$
ABBREVIATIONS USED IN REMARKS
   TC - TEMPERATURES IN CELSIUS
  WCI - WIND CHILL INDEX
   HX - HEAT INDEX
  VSB - VISIBILITY
$$


USA.gov is the U.S. government's official web portal to all federal, state and local government web resources and services.